Location: Grandview
(34.8900°N, 117.1058°W)
Time: 03:32:35
(UTC-07:00)

OTV 5 (USA 277) - Pass Details

Date: 13 October 2017
Orbit: 404 x 417 km, 43.0° (Epoch: 07 September)

Event Time Altitude Azimuth Distance (km) Brightness Sun altitude
Rises 20:30:59 0° 294° (WNW) 2,352 ? -28.5°
Reaches altitude 10° 20:33:29 10° 312° (NW) 1,489 ? -29.0°
Enters shadow 20:33:59 12° 318° (NW) 1,348 ? -29.1°
